Tracking 31027 objects as of 19-Jul-2025
HD Live streaming from Space Station
objects crossing your sky now

STARLINK-32194

Track STARLINK-32194 now!
10-day predictions
STARLINK-32194 is classified as:


NORAD ID: 60315
Int'l Code: 2024-133Q
Perigee: 481.6 km
Apogee: 483.2 km
Inclination: 53.2 °
Period: 94.1 minutes
Semi major axis: 6853 km
RCS: Unknown
Launch date: July 28, 2024
Source: United States (US)
Launch site: AIR FORCE WESTERN TEST RANGE (AFWTR)
Your satellite tracking list
COSMOS 1656
Track 1 satellite(s)




NASA's NSSDC Master Catalog

Two Line Element Set (TLE):
1 60315U 24133Q   25199.55907849  .00000342  00000-0  23687-4 0  9990
2 60315  53.1597 304.5953 0001142  79.4671 280.6459 15.30181759 55798
Source of the keplerian elements: AFSPC